Year,Month,Day,Hour,Minute,Value (Times are PST for temperature in C)
2011,02,18,00,00,-0.70
2011,02,18,00,01,-0.70
2011,02,18,00,02,-0.70
2011,02,18,00,03,-0.70
2011,02,18,00,04,-0.70
2011,02,18,00,05,-0.70
2011,02,18,00,06,-0.70
2011,02,18,00,07,-0.60
2011,02,18,00,08,-0.50
2011,02,18,00,09,-0.40
2011,02,18,00,10,-0.30
2011,02,18,00,11,-0.30
2011,02,18,00,12,-0.20
2011,02,18,00,13,-0.20
2011,02,18,00,14,-0.20
2011,02,18,00,15,-0.20
2011,02,18,00,16,-0.20
2011,02,18,00,17,-0.20
2011,02,18,00,18,-0.20
2011,02,18,00,19,-0.20
2011,02,18,00,20,-0.20
2011,02,18,00,21,-0.20
2011,02,18,00,22,-0.20
2011,02,18,00,23,-0.10
2011,02,18,00,24,-0.10
2011,02,18,00,25,-0.10
2011,02,18,00,26,-0.10
2011,02,18,00,27,-0.10
2011,02,18,00,28,0.00
2011,02,18,00,29,0.00
2011,02,18,00,30,0.00
2011,02,18,00,31,0.10
2011,02,18,00,32,0.10
2011,02,18,00,33,0.10
2011,02,18,00,34,0.10
2011,02,18,00,35,0.10
2011,02,18,00,36,0.10
2011,02,18,00,37,0.10
2011,02,18,00,38,0.20
2011,02,18,00,39,0.20
2011,02,18,00,40,0.20
2011,02,18,00,41,0.20
2011,02,18,00,42,0.20
2011,02,18,00,43,0.20
2011,02,18,00,44,0.20
2011,02,18,00,45,0.20
2011,02,18,00,46,0.30
2011,02,18,00,47,0.30
2011,02,18,00,48,0.30
2011,02,18,00,49,0.30
2011,02,18,00,50,0.30
2011,02,18,00,51,0.40
2011,02,18,00,52,0.40
2011,02,18,00,53,0.40
2011,02,18,00,54,0.50
2011,02,18,00,55,0.50
2011,02,18,00,56,0.60
2011,02,18,00,57,0.60
2011,02,18,00,58,0.70
2011,02,18,00,59,0.70
2011,02,18,01,00,0.70
2011,02,18,01,01,0.70
2011,02,18,01,02,0.80
2011,02,18,01,03,0.80
2011,02,18,01,04,0.90
2011,02,18,01,05,0.90
2011,02,18,01,06,0.90
2011,02,18,01,07,0.90
2011,02,18,01,08,0.90
2011,02,18,01,09,1.00
2011,02,18,01,10,1.00
2011,02,18,01,11,1.00
2011,02,18,01,12,1.00
2011,02,18,01,13,1.00
2011,02,18,01,14,1.00
2011,02,18,01,15,1.00
2011,02,18,01,16,1.00
2011,02,18,01,17,1.00
2011,02,18,01,18,1.00
2011,02,18,01,19,0.90
2011,02,18,01,20,1.00
2011,02,18,01,21,1.00
2011,02,18,01,22,1.00
2011,02,18,01,23,0.90
2011,02,18,01,24,0.90
2011,02,18,01,25,0.90
2011,02,18,01,26,0.90
2011,02,18,01,27,0.90
2011,02,18,01,28,0.90
2011,02,18,01,29,1.00
2011,02,18,01,30,1.00
2011,02,18,01,31,1.00
2011,02,18,01,32,1.00
2011,02,18,01,33,1.10
2011,02,18,01,34,1.00
2011,02,18,01,35,1.10
2011,02,18,01,36,1.10
2011,02,18,01,37,1.10
2011,02,18,01,38,1.10
2011,02,18,01,39,1.10
2011,02,18,01,40,1.10
2011,02,18,01,41,1.10
2011,02,18,01,42,1.10
2011,02,18,01,43,1.10
2011,02,18,01,44,1.10
2011,02,18,01,45,1.10
2011,02,18,01,46,1.10
2011,02,18,01,47,1.00
2011,02,18,01,48,1.00
2011,02,18,01,49,1.00
2011,02,18,01,50,1.00
2011,02,18,01,51,1.00
2011,02,18,01,52,1.00
2011,02,18,01,53,0.90
2011,02,18,01,54,1.00
2011,02,18,01,55,1.00
2011,02,18,01,56,1.00
2011,02,18,01,57,1.00
2011,02,18,01,58,1.00
2011,02,18,01,59,1.10
2011,02,18,02,00,1.10
2011,02,18,02,01,1.10
2011,02,18,02,02,1.10
2011,02,18,02,03,1.10
2011,02,18,02,04,1.10
2011,02,18,02,05,1.10
2011,02,18,02,06,1.10
2011,02,18,02,07,1.10
2011,02,18,02,08,1.10
2011,02,18,02,09,1.00
2011,02,18,02,10,1.00
2011,02,18,02,11,1.00
2011,02,18,02,12,1.00
2011,02,18,02,13,0.90
2011,02,18,02,14,0.90
2011,02,18,02,15,0.90
2011,02,18,02,16,0.90
2011,02,18,02,17,0.90
2011,02,18,02,18,0.90
2011,02,18,02,19,0.80
2011,02,18,02,20,0.80
2011,02,18,02,21,0.80
2011,02,18,02,22,0.80
2011,02,18,02,23,0.80
2011,02,18,02,24,0.80
2011,02,18,02,25,0.80
2011,02,18,02,26,0.80
2011,02,18,02,27,0.80
2011,02,18,02,28,0.80
2011,02,18,02,29,0.80
2011,02,18,02,30,0.80
2011,02,18,02,31,0.80
2011,02,18,02,32,0.80
2011,02,18,02,33,0.80
2011,02,18,02,34,0.70
2011,02,18,02,35,0.70
2011,02,18,02,36,0.70
2011,02,18,02,37,0.70
2011,02,18,02,38,0.70
2011,02,18,02,39,0.70
2011,02,18,02,40,0.60
2011,02,18,02,41,0.60
2011,02,18,02,42,0.60
2011,02,18,02,43,0.60
2011,02,18,02,44,0.60
2011,02,18,02,45,0.60
2011,02,18,02,46,0.60
2011,02,18,02,47,0.60
2011,02,18,02,48,0.70
2011,02,18,02,49,0.70
2011,02,18,02,50,0.70
2011,02,18,02,51,0.70
2011,02,18,02,52,0.60
2011,02,18,02,53,0.60
2011,02,18,02,54,0.60
2011,02,18,02,55,0.60
2011,02,18,02,56,0.60
2011,02,18,02,57,0.60
2011,02,18,02,58,0.60
2011,02,18,02,59,0.60
2011,02,18,03,00,0.60
2011,02,18,03,01,0.60
2011,02,18,03,02,0.60
2011,02,18,03,03,0.60
2011,02,18,03,04,0.60
2011,02,18,03,05,0.60
2011,02,18,03,06,0.60
2011,02,18,03,07,0.60
2011,02,18,03,08,0.60
2011,02,18,03,09,0.60
2011,02,18,03,10,0.60
2011,02,18,03,11,0.60
2011,02,18,03,12,0.60
2011,02,18,03,13,0.60
2011,02,18,03,14,0.60
2011,02,18,03,15,0.60
2011,02,18,03,16,0.60
2011,02,18,03,17,0.60
2011,02,18,03,18,0.60
2011,02,18,03,19,0.60
2011,02,18,03,20,0.60
2011,02,18,03,21,0.60
2011,02,18,03,22,0.60
2011,02,18,03,23,0.60
2011,02,18,03,24,0.60
2011,02,18,03,25,0.60
2011,02,18,03,26,0.60
2011,02,18,03,27,0.60
2011,02,18,03,28,0.60
2011,02,18,03,29,0.60
2011,02,18,03,30,0.70
2011,02,18,03,31,0.70
2011,02,18,03,32,0.70
2011,02,18,03,33,0.70
2011,02,18,03,34,0.70
2011,02,18,03,35,0.80
2011,02,18,03,36,0.70
2011,02,18,03,37,0.70
2011,02,18,03,38,0.70
2011,02,18,03,39,0.70
2011,02,18,03,40,0.70
2011,02,18,03,41,0.70
2011,02,18,03,42,0.70
2011,02,18,03,43,0.70
2011,02,18,03,44,0.70
2011,02,18,03,45,0.70
2011,02,18,03,46,0.70
2011,02,18,03,47,0.70
2011,02,18,03,48,0.70
2011,02,18,03,49,0.70
2011,02,18,03,50,0.70
2011,02,18,03,51,0.70
2011,02,18,03,52,0.70
2011,02,18,03,53,0.70
2011,02,18,03,54,0.70
2011,02,18,03,55,0.70
2011,02,18,03,56,0.70
2011,02,18,03,57,0.70
2011,02,18,03,58,0.70
2011,02,18,03,59,0.70
2011,02,18,04,00,0.70
2011,02,18,04,01,0.70
2011,02,18,04,02,0.70
2011,02,18,04,03,0.70
2011,02,18,04,04,0.70
2011,02,18,04,05,0.70
2011,02,18,04,06,0.70
2011,02,18,04,07,0.70
2011,02,18,04,08,0.70
2011,02,18,04,09,0.70
2011,02,18,04,10,0.70
2011,02,18,04,11,0.70
2011,02,18,04,12,0.70
2011,02,18,04,13,0.70
2011,02,18,04,14,0.70
2011,02,18,04,15,0.70
2011,02,18,04,16,0.70
2011,02,18,04,17,0.70
2011,02,18,04,18,0.70
2011,02,18,04,19,0.70
2011,02,18,04,20,0.70
2011,02,18,04,21,0.70
2011,02,18,04,22,0.70
2011,02,18,04,23,0.70
2011,02,18,04,24,0.80
2011,02,18,04,25,0.80
2011,02,18,04,26,0.80
2011,02,18,04,27,0.80
2011,02,18,04,28,0.80
2011,02,18,04,29,0.80
2011,02,18,04,30,0.80
2011,02,18,04,31,0.80
2011,02,18,04,32,0.80
2011,02,18,04,33,0.80
2011,02,18,04,34,0.80
2011,02,18,04,35,0.80
2011,02,18,04,36,0.90
2011,02,18,04,37,0.90
2011,02,18,04,38,0.90
2011,02,18,04,39,0.90
2011,02,18,04,40,0.90
2011,02,18,04,41,0.90
2011,02,18,04,42,0.90
2011,02,18,04,43,0.90
2011,02,18,04,44,0.90
2011,02,18,04,45,0.90
2011,02,18,04,46,0.90
2011,02,18,04,47,0.90
2011,02,18,04,48,0.90
2011,02,18,04,49,0.90
2011,02,18,04,50,0.90
2011,02,18,04,51,0.90
2011,02,18,04,52,0.90
2011,02,18,04,53,0.90
2011,02,18,04,54,0.90
2011,02,18,04,55,1.00
2011,02,18,04,56,0.90
2011,02,18,04,57,0.90
2011,02,18,04,58,0.90
2011,02,18,04,59,0.90
2011,02,18,05,00,0.90
2011,02,18,05,01,0.90
2011,02,18,05,02,0.90
2011,02,18,05,03,1.00
2011,02,18,05,04,1.00
2011,02,18,05,05,1.10
2011,02,18,05,06,1.10
2011,02,18,05,07,1.20
2011,02,18,05,08,1.20
2011,02,18,05,09,1.20
2011,02,18,05,10,1.20
2011,02,18,05,11,1.20
2011,02,18,05,12,1.20
2011,02,18,05,13,1.20
2011,02,18,05,14,1.30
2011,02,18,05,15,1.30
2011,02,18,05,16,1.30
2011,02,18,05,17,1.30
2011,02,18,05,18,1.30
2011,02,18,05,19,1.30
2011,02,18,05,20,1.30
2011,02,18,05,21,1.30
2011,02,18,05,22,1.30
2011,02,18,05,23,1.30
2011,02,18,05,24,1.30
2011,02,18,05,25,1.30
2011,02,18,05,26,1.30
2011,02,18,05,27,1.30
2011,02,18,05,28,1.40
2011,02,18,05,29,1.40
2011,02,18,05,30,1.50
2011,02,18,05,31,1.60
2011,02,18,05,32,1.60
2011,02,18,05,33,1.60
2011,02,18,05,34,1.60
2011,02,18,05,35,1.70
2011,02,18,05,36,1.70
2011,02,18,05,37,1.80
2011,02,18,05,38,1.80
2011,02,18,05,39,1.80
2011,02,18,05,40,1.90
2011,02,18,05,41,1.90
2011,02,18,05,42,2.00
2011,02,18,05,43,2.00
2011,02,18,05,44,2.10
2011,02,18,05,45,2.10
2011,02,18,05,46,2.10
2011,02,18,05,47,2.10
2011,02,18,05,48,2.10
2011,02,18,05,49,2.20
2011,02,18,05,50,2.20
2011,02,18,05,51,2.20
2011,02,18,05,52,2.30
2011,02,18,05,53,2.40
2011,02,18,05,54,2.50
2011,02,18,05,55,2.60
2011,02,18,05,56,2.60
2011,02,18,05,57,2.70
2011,02,18,05,58,2.70
2011,02,18,05,59,2.70
2011,02,18,06,00,2.70
2011,02,18,06,01,2.70
2011,02,18,06,02,2.80
2011,02,18,06,03,2.80
2011,02,18,06,04,2.80
2011,02,18,06,05,2.80
2011,02,18,06,06,2.80
2011,02,18,06,07,2.80
2011,02,18,06,08,2.90
2011,02,18,06,09,2.90
2011,02,18,06,10,2.90
2011,02,18,06,11,2.90
2011,02,18,06,12,3.00
2011,02,18,06,13,3.00
2011,02,18,06,14,3.00
2011,02,18,06,15,3.00
2011,02,18,06,16,3.10
2011,02,18,06,17,3.10
2011,02,18,06,18,3.00
2011,02,18,06,19,3.10
2011,02,18,06,20,3.10
2011,02,18,06,21,3.00
2011,02,18,06,22,3.00
2011,02,18,06,23,3.10
2011,02,18,06,24,3.10
2011,02,18,06,25,3.20
2011,02,18,06,26,3.30
2011,02,18,06,27,3.30
2011,02,18,06,28,3.30
2011,02,18,06,29,3.30
2011,02,18,06,30,3.30
2011,02,18,06,31,3.30
2011,02,18,06,32,3.30
2011,02,18,06,33,3.30
2011,02,18,06,34,3.30
2011,02,18,06,35,3.30
2011,02,18,06,36,3.30
2011,02,18,06,37,3.30
2011,02,18,06,38,3.30
2011,02,18,06,39,3.40
2011,02,18,06,40,3.40
2011,02,18,06,41,3.40
2011,02,18,06,42,3.40
2011,02,18,06,43,3.30
2011,02,18,06,44,3.30
2011,02,18,06,45,3.30
2011,02,18,06,46,3.30
2011,02,18,06,47,3.30
2011,02,18,06,48,3.30
2011,02,18,06,49,3.30
2011,02,18,06,50,3.30
2011,02,18,06,51,3.40
2011,02,18,06,52,3.40
2011,02,18,06,53,3.40
2011,02,18,06,54,3.40
2011,02,18,06,55,3.50
2011,02,18,06,56,3.50
2011,02,18,06,57,3.50
2011,02,18,06,58,3.60
2011,02,18,06,59,3.60
2011,02,18,07,00,3.50
2011,02,18,07,01,3.50
2011,02,18,07,02,3.40
2011,02,18,07,03,3.40
2011,02,18,07,04,3.40
2011,02,18,07,05,3.40
2011,02,18,07,06,3.40
2011,02,18,07,07,3.40
2011,02,18,07,08,3.40
2011,02,18,07,09,3.40
2011,02,18,07,10,3.50
2011,02,18,07,11,3.50
2011,02,18,07,12,3.50
2011,02,18,07,13,3.50
2011,02,18,07,14,3.50
2011,02,18,07,15,3.50
2011,02,18,07,16,3.50
2011,02,18,07,17,3.50
2011,02,18,07,18,3.50
2011,02,18,07,19,3.50
2011,02,18,07,20,3.50
2011,02,18,07,21,3.50
2011,02,18,07,22,3.40
2011,02,18,07,23,3.40
2011,02,18,07,24,3.50
2011,02,18,07,25,3.50
2011,02,18,07,26,3.50
2011,02,18,07,27,3.60
2011,02,18,07,28,3.70
2011,02,18,07,29,3.70
2011,02,18,07,30,3.80
2011,02,18,07,31,3.80
2011,02,18,07,32,3.80
2011,02,18,07,33,3.90
2011,02,18,07,34,3.80
2011,02,18,07,35,3.80
2011,02,18,07,36,3.80
2011,02,18,07,37,3.80
2011,02,18,07,38,3.80
2011,02,18,07,39,3.80
2011,02,18,07,40,3.80
2011,02,18,07,41,3.80
2011,02,18,07,42,3.80
2011,02,18,07,43,3.80
2011,02,18,07,44,3.80
2011,02,18,07,45,3.80
2011,02,18,07,46,3.80
2011,02,18,07,47,3.80
2011,02,18,07,48,3.80
2011,02,18,07,49,3.80
2011,02,18,07,50,3.80
2011,02,18,07,51,3.80
2011,02,18,07,52,3.80
2011,02,18,07,53,3.80
2011,02,18,07,54,3.80
2011,02,18,07,55,3.80
2011,02,18,07,56,3.80
2011,02,18,07,57,3.80
2011,02,18,07,58,3.80
2011,02,18,07,59,3.80
2011,02,18,08,00,3.80
2011,02,18,08,01,3.90
2011,02,18,08,02,3.90
2011,02,18,08,03,3.90
2011,02,18,08,04,3.90
2011,02,18,08,05,3.90
2011,02,18,08,06,3.90
2011,02,18,08,07,3.90
2011,02,18,08,08,3.90
2011,02,18,08,09,3.90
2011,02,18,08,10,3.90
2011,02,18,08,11,3.90
2011,02,18,08,12,3.90
2011,02,18,08,13,3.90
2011,02,18,08,14,3.90
2011,02,18,08,15,3.90
2011,02,18,08,16,3.90
2011,02,18,08,17,3.90
2011,02,18,08,18,4.00
2011,02,18,08,19,4.00
2011,02,18,08,20,4.00
2011,02,18,08,21,4.00
2011,02,18,08,22,3.90
2011,02,18,08,23,3.90
2011,02,18,08,24,3.90
2011,02,18,08,25,3.90
2011,02,18,08,26,3.90
2011,02,18,08,27,3.90
2011,02,18,08,28,3.90
2011,02,18,08,29,3.90
2011,02,18,08,30,3.90
2011,02,18,08,31,3.90
2011,02,18,08,32,3.90
2011,02,18,08,33,3.90
2011,02,18,08,34,3.90
2011,02,18,08,35,3.90
2011,02,18,08,36,3.90
2011,02,18,08,37,3.90
2011,02,18,08,38,3.90
2011,02,18,08,39,3.90
2011,02,18,08,40,4.00
2011,02,18,08,41,4.00
2011,02,18,08,42,4.00
2011,02,18,08,43,4.10
2011,02,18,08,44,4.10
2011,02,18,08,45,4.10
2011,02,18,08,46,4.10
2011,02,18,08,47,4.10
2011,02,18,08,48,4.10
2011,02,18,08,49,4.10
2011,02,18,08,50,4.10
2011,02,18,08,51,4.10
2011,02,18,08,52,4.10
2011,02,18,08,53,4.10
2011,02,18,08,54,4.10
2011,02,18,08,55,4.10
2011,02,18,08,56,4.10
2011,02,18,08,57,4.10
2011,02,18,08,58,4.10
2011,02,18,08,59,4.10
2011,02,18,09,00,4.10
2011,02,18,09,01,4.10
2011,02,18,09,02,4.10
2011,02,18,09,03,4.00
2011,02,18,09,04,4.00
2011,02,18,09,05,4.00
2011,02,18,09,06,4.10
2011,02,18,09,07,4.10
2011,02,18,09,08,4.00
2011,02,18,09,09,4.10
2011,02,18,09,10,4.10
2011,02,18,09,11,4.10
2011,02,18,09,12,4.10
2011,02,18,09,13,4.10
2011,02,18,09,14,4.20
2011,02,18,09,15,4.20
2011,02,18,09,16,4.20
2011,02,18,09,17,4.20
2011,02,18,09,18,4.20
2011,02,18,09,19,4.20
2011,02,18,09,20,4.20
2011,02,18,09,21,4.30
2011,02,18,09,22,4.30
2011,02,18,09,23,4.30
2011,02,18,09,24,4.30
2011,02,18,09,25,4.30
2011,02,18,09,26,4.30
2011,02,18,09,27,4.30
2011,02,18,09,28,4.30
2011,02,18,09,29,4.40
2011,02,18,09,30,4.40
2011,02,18,09,31,4.40
2011,02,18,09,32,4.40
2011,02,18,09,33,4.40
2011,02,18,09,34,4.50
2011,02,18,09,35,4.50
2011,02,18,09,36,4.50
2011,02,18,09,37,4.50
2011,02,18,09,38,4.40
2011,02,18,09,39,4.50
2011,02,18,09,40,4.50
2011,02,18,09,41,4.50
2011,02,18,09,42,4.50
2011,02,18,09,43,4.40
2011,02,18,09,44,4.40
2011,02,18,09,45,4.40
2011,02,18,09,46,4.40
2011,02,18,09,47,4.50
2011,02,18,09,48,4.50
2011,02,18,09,49,4.50
2011,02,18,09,50,4.50
2011,02,18,09,51,4.50
2011,02,18,09,52,4.50
2011,02,18,09,53,4.50
2011,02,18,09,54,4.50
2011,02,18,09,55,4.60
2011,02,18,09,56,4.60
2011,02,18,09,57,4.60
2011,02,18,09,58,4.60
2011,02,18,09,59,4.60
2011,02,18,10,00,4.60
2011,02,18,10,01,4.60
2011,02,18,10,02,4.60
2011,02,18,10,03,4.60
2011,02,18,10,04,4.70
2011,02,18,10,05,4.70
2011,02,18,10,06,4.70
2011,02,18,10,07,4.70
2011,02,18,10,08,4.70
2011,02,18,10,09,4.70
2011,02,18,10,10,4.70
2011,02,18,10,11,4.70
2011,02,18,10,12,4.70
2011,02,18,10,13,4.70
2011,02,18,10,14,4.80
2011,02,18,10,15,4.80
2011,02,18,10,16,4.80
2011,02,18,10,17,4.80
2011,02,18,10,18,4.80
2011,02,18,10,19,4.80
2011,02,18,10,20,4.80
2011,02,18,10,21,4.80
2011,02,18,10,22,4.80
2011,02,18,10,23,4.80
2011,02,18,10,24,4.80
2011,02,18,10,25,4.80
2011,02,18,10,26,4.90
2011,02,18,10,27,4.90
2011,02,18,10,28,4.90
2011,02,18,10,29,4.90
2011,02,18,10,30,4.90
2011,02,18,10,31,4.90
2011,02,18,10,32,4.90
2011,02,18,10,33,4.90
2011,02,18,10,34,4.90
2011,02,18,10,35,4.90
2011,02,18,10,36,4.90
2011,02,18,10,37,5.00
2011,02,18,10,38,5.00
2011,02,18,10,39,5.10
2011,02,18,10,40,5.10
2011,02,18,10,41,5.10
2011,02,18,10,42,5.10
2011,02,18,10,43,5.20
2011,02,18,10,44,5.20
2011,02,18,10,45,5.20
2011,02,18,10,46,5.30
2011,02,18,10,47,5.30
2011,02,18,10,48,5.30
2011,02,18,10,49,5.30
2011,02,18,10,50,5.30
2011,02,18,10,51,5.30
2011,02,18,10,52,5.30
2011,02,18,10,53,5.30
2011,02,18,10,54,5.30
2011,02,18,10,55,5.40
2011,02,18,10,56,5.40
2011,02,18,10,57,5.40
2011,02,18,10,58,5.40
2011,02,18,10,59,5.50
2011,02,18,11,00,5.50
2011,02,18,11,01,5.50
2011,02,18,11,02,5.40
2011,02,18,11,03,5.40
2011,02,18,11,04,5.40
2011,02,18,11,05,5.40
2011,02,18,11,06,5.30
2011,02,18,11,07,5.30
2011,02,18,11,08,5.30
2011,02,18,11,09,5.30
2011,02,18,11,10,5.30
2011,02,18,11,11,5.30
2011,02,18,11,12,5.30
2011,02,18,11,13,5.30
2011,02,18,11,14,5.30
2011,02,18,11,15,5.20
2011,02,18,11,16,5.20
2011,02,18,11,17,5.20
2011,02,18,11,18,5.20
2011,02,18,11,19,5.20
2011,02,18,11,20,5.20
2011,02,18,11,21,5.30
2011,02,18,11,22,5.30
2011,02,18,11,23,5.30
2011,02,18,11,24,5.30
2011,02,18,11,25,5.40
2011,02,18,11,26,5.40
2011,02,18,11,27,5.40
2011,02,18,11,28,5.50
2011,02,18,11,29,5.50
2011,02,18,11,30,5.50
2011,02,18,11,31,5.60
2011,02,18,11,32,5.60
2011,02,18,11,33,5.60
2011,02,18,11,34,5.60
2011,02,18,11,35,5.60
2011,02,18,11,36,5.60
2011,02,18,11,37,5.60
2011,02,18,11,38,5.60
2011,02,18,11,39,5.60
2011,02,18,11,40,5.60
2011,02,18,11,41,5.60
2011,02,18,11,42,5.60
2011,02,18,11,43,5.60
2011,02,18,11,44,5.70
2011,02,18,11,45,5.70
2011,02,18,11,46,5.70
2011,02,18,11,47,5.60
2011,02,18,11,48,5.70
2011,02,18,11,49,5.60
2011,02,18,11,50,5.60
2011,02,18,11,51,5.60
2011,02,18,11,52,5.70
2011,02,18,11,53,5.70
2011,02,18,11,54,5.70
2011,02,18,11,55,5.70
2011,02,18,11,56,5.80
2011,02,18,11,57,5.80
2011,02,18,11,58,5.80
2011,02,18,11,59,5.80
2011,02,18,12,00,5.90
2011,02,18,12,01,5.90
2011,02,18,12,02,5.90
2011,02,18,12,03,6.00
2011,02,18,12,04,6.00
2011,02,18,12,05,6.10
2011,02,18,12,06,6.10
2011,02,18,12,07,6.10
2011,02,18,12,08,6.10
2011,02,18,12,09,6.10
2011,02,18,12,10,6.20
2011,02,18,12,11,6.20
2011,02,18,12,12,6.20
2011,02,18,12,13,6.30
2011,02,18,12,14,6.30
2011,02,18,12,15,6.30
2011,02,18,12,16,6.30
2011,02,18,12,17,6.30
2011,02,18,12,18,6.30
2011,02,18,12,19,6.20
2011,02,18,12,20,6.20
2011,02,18,12,21,6.20
2011,02,18,12,22,6.20
2011,02,18,12,23,6.30
2011,02,18,12,24,6.30
2011,02,18,12,25,6.30
2011,02,18,12,26,6.30
2011,02,18,12,27,6.30
2011,02,18,12,28,6.30
2011,02,18,12,29,6.30
2011,02,18,12,30,6.30
2011,02,18,12,31,6.30
2011,02,18,12,32,6.30
2011,02,18,12,33,6.30
2011,02,18,12,34,6.30
2011,02,18,12,35,6.30
2011,02,18,12,36,6.30
2011,02,18,12,37,6.30
2011,02,18,12,38,6.30
2011,02,18,12,39,6.30
2011,02,18,12,40,6.30
2011,02,18,12,41,6.30
2011,02,18,12,42,6.30
2011,02,18,12,43,6.30
2011,02,18,12,44,6.30
2011,02,18,12,45,6.30
2011,02,18,12,46,6.30
2011,02,18,12,47,6.30
2011,02,18,12,48,6.30
2011,02,18,12,49,6.30
2011,02,18,12,50,6.30
2011,02,18,12,51,6.30
2011,02,18,12,52,6.30
2011,02,18,12,53,6.30
2011,02,18,12,54,6.30
2011,02,18,12,55,6.30
2011,02,18,12,56,6.30
2011,02,18,12,57,6.30
2011,02,18,12,58,6.30
2011,02,18,12,59,6.30
2011,02,18,13,00,6.30
2011,02,18,13,01,6.30
2011,02,18,13,02,6.30
2011,02,18,13,03,6.30
2011,02,18,13,04,6.30
2011,02,18,13,05,6.30
2011,02,18,13,06,6.30
2011,02,18,13,07,6.40
2011,02,18,13,08,6.40
2011,02,18,13,09,6.40
2011,02,18,13,10,6.40
2011,02,18,13,11,6.40
2011,02,18,13,12,6.40
2011,02,18,13,13,6.30
2011,02,18,13,14,6.30
2011,02,18,13,15,6.40
2011,02,18,13,16,6.40
2011,02,18,13,17,6.50
2011,02,18,13,18,6.50
2011,02,18,13,19,6.50
2011,02,18,13,20,6.50
2011,02,18,13,21,6.50
2011,02,18,13,22,6.50
2011,02,18,13,23,6.40
2011,02,18,13,24,6.40
2011,02,18,13,25,6.40
2011,02,18,13,26,6.50
2011,02,18,13,27,6.50
2011,02,18,13,28,6.40
2011,02,18,13,29,6.40
2011,02,18,13,30,6.40
2011,02,18,13,31,6.40
2011,02,18,13,32,6.40
2011,02,18,13,33,6.40
2011,02,18,13,34,6.40
2011,02,18,13,35,6.40
2011,02,18,13,36,6.40
2011,02,18,13,37,6.40
2011,02,18,13,38,6.40
2011,02,18,13,39,6.50
2011,02,18,13,40,6.50
2011,02,18,13,41,6.50
2011,02,18,13,42,6.50
2011,02,18,13,43,6.50
2011,02,18,13,44,6.40
2011,02,18,13,45,6.40
2011,02,18,13,46,6.40
2011,02,18,13,47,6.40
2011,02,18,13,48,6.40
2011,02,18,13,49,6.40
2011,02,18,13,50,6.40
2011,02,18,13,51,6.30
2011,02,18,13,52,6.30
2011,02,18,13,53,6.30
2011,02,18,13,54,6.30
2011,02,18,13,55,6.40
2011,02,18,13,56,6.40
2011,02,18,13,57,6.40
2011,02,18,13,58,6.50
2011,02,18,13,59,6.60
2011,02,18,14,00,6.60
2011,02,18,14,01,6.60
2011,02,18,14,02,6.70
2011,02,18,14,03,6.70
2011,02,18,14,04,6.70
2011,02,18,14,05,6.70
2011,02,18,14,06,6.60
2011,02,18,14,07,6.60
2011,02,18,14,08,6.60
2011,02,18,14,09,6.60
2011,02,18,14,10,6.60
2011,02,18,14,11,6.60
2011,02,18,14,12,6.60
2011,02,18,14,13,6.50
2011,02,18,14,14,6.60
2011,02,18,14,15,6.60
2011,02,18,14,16,6.60
2011,02,18,14,17,6.60
2011,02,18,14,18,6.60
2011,02,18,14,19,6.60
2011,02,18,14,20,6.60
2011,02,18,14,21,6.50
2011,02,18,14,22,6.50
2011,02,18,14,23,6.50
2011,02,18,14,24,6.50
2011,02,18,14,25,6.50
2011,02,18,14,26,6.40
2011,02,18,14,27,6.40
2011,02,18,14,28,6.50
2011,02,18,14,29,6.50
2011,02,18,14,30,6.50
2011,02,18,14,31,6.50
2011,02,18,14,32,6.50
2011,02,18,14,33,6.50
2011,02,18,14,34,6.50
2011,02,18,14,35,6.50
2011,02,18,14,36,6.50
2011,02,18,14,37,6.60
2011,02,18,14,38,6.60
2011,02,18,14,39,6.60
2011,02,18,14,40,6.60
2011,02,18,14,41,6.60
2011,02,18,14,42,6.60
2011,02,18,14,43,6.60
2011,02,18,14,44,6.60
2011,02,18,14,45,6.60
2011,02,18,14,46,6.60
2011,02,18,14,47,6.50
2011,02,18,14,48,6.50
2011,02,18,14,49,6.60
2011,02,18,14,50,6.60
2011,02,18,14,51,6.60
2011,02,18,14,52,6.60
2011,02,18,14,53,6.60
2011,02,18,14,54,6.60
2011,02,18,14,55,6.60
2011,02,18,14,56,6.60
2011,02,18,14,57,6.60
2011,02,18,14,58,6.60
2011,02,18,14,59,6.60
2011,02,18,15,00,6.60
2011,02,18,15,01,6.60
2011,02,18,15,02,6.60
2011,02,18,15,03,6.60
2011,02,18,15,04,6.60
2011,02,18,15,05,6.60
2011,02,18,15,06,6.60
2011,02,18,15,07,6.60
2011,02,18,15,08,6.60
2011,02,18,15,09,6.60
2011,02,18,15,10,6.60
2011,02,18,15,11,6.60
2011,02,18,15,12,6.60
2011,02,18,15,13,6.60
2011,02,18,15,14,6.70
2011,02,18,15,15,6.70
2011,02,18,15,16,6.70
2011,02,18,15,17,6.70
2011,02,18,15,18,6.70
2011,02,18,15,19,6.70
2011,02,18,15,20,6.70
2011,02,18,15,21,6.70
2011,02,18,15,22,6.70
2011,02,18,15,23,6.70
2011,02,18,15,24,6.60
2011,02,18,15,25,6.70
2011,02,18,15,26,6.60
2011,02,18,15,27,6.60
2011,02,18,15,28,6.70
2011,02,18,15,29,6.60
2011,02,18,15,30,6.70
2011,02,18,15,31,6.70
2011,02,18,15,32,6.70
2011,02,18,15,33,6.70
2011,02,18,15,34,6.70
2011,02,18,15,35,6.70
2011,02,18,15,36,6.70
2011,02,18,15,37,6.70
2011,02,18,15,38,6.70
2011,02,18,15,39,6.70
2011,02,18,15,40,6.70
2011,02,18,15,41,6.70
2011,02,18,15,42,6.70
2011,02,18,15,43,6.60
2011,02,18,15,44,6.60
2011,02,18,15,45,6.60
2011,02,18,15,46,6.60
2011,02,18,15,47,6.60
2011,02,18,15,48,6.70
2011,02,18,15,49,6.70
2011,02,18,15,50,6.70
2011,02,18,15,51,6.70
2011,02,18,15,52,6.60
2011,02,18,15,53,6.70
2011,02,18,15,54,6.70
2011,02,18,15,55,6.70
2011,02,18,15,56,6.70
2011,02,18,15,57,6.70
2011,02,18,15,58,6.70
2011,02,18,15,59,6.70
2011,02,18,16,00,6.70
2011,02,18,16,01,6.70
2011,02,18,16,02,6.70
2011,02,18,16,03,6.70
2011,02,18,16,04,6.70
2011,02,18,16,05,6.70
2011,02,18,16,06,6.70
2011,02,18,16,07,6.70
2011,02,18,16,08,6.70
2011,02,18,16,09,6.70
2011,02,18,16,10,6.70
2011,02,18,16,11,6.70
2011,02,18,16,12,6.70
2011,02,18,16,13,6.70
2011,02,18,16,14,6.70
2011,02,18,16,15,6.70
2011,02,18,16,16,6.70
2011,02,18,16,17,6.70
2011,02,18,16,18,6.70
2011,02,18,16,19,6.70
2011,02,18,16,20,6.70
2011,02,18,16,21,6.70
2011,02,18,16,22,6.70
2011,02,18,16,23,6.70
2011,02,18,16,24,6.70
2011,02,18,16,25,6.70
2011,02,18,16,26,6.70
2011,02,18,16,27,6.70
2011,02,18,16,28,6.70
2011,02,18,16,29,6.70
2011,02,18,16,30,6.70
2011,02,18,16,31,6.70
2011,02,18,16,32,6.70
2011,02,18,16,33,6.70
2011,02,18,16,34,6.70
2011,02,18,16,35,6.70
2011,02,18,16,36,6.70
2011,02,18,16,37,6.70
2011,02,18,16,38,6.70
2011,02,18,16,39,6.70
2011,02,18,16,40,6.70
2011,02,18,16,41,6.70
2011,02,18,16,42,6.70
2011,02,18,16,43,6.70
2011,02,18,16,44,6.70
2011,02,18,16,45,6.70
2011,02,18,16,46,6.70
2011,02,18,16,47,6.70
2011,02,18,16,48,6.70
2011,02,18,16,49,6.70
2011,02,18,16,50,6.70
2011,02,18,16,51,6.70
2011,02,18,16,52,6.70
2011,02,18,16,53,6.70
2011,02,18,16,54,6.70
2011,02,18,16,55,6.70
2011,02,18,16,56,6.70
2011,02,18,16,57,6.70
2011,02,18,16,58,6.70
2011,02,18,16,59,6.60
2011,02,18,17,00,6.60
2011,02,18,17,01,6.50
2011,02,18,17,02,6.50
2011,02,18,17,03,6.40
2011,02,18,17,04,6.40
2011,02,18,17,05,6.30
2011,02,18,17,06,6.30
2011,02,18,17,07,6.30
2011,02,18,17,08,6.30
2011,02,18,17,09,6.30
2011,02,18,17,10,6.20
2011,02,18,17,11,6.10
2011,02,18,17,12,6.10
2011,02,18,17,13,6.00
2011,02,18,17,14,6.00
2011,02,18,17,15,5.90
2011,02,18,17,16,5.90
2011,02,18,17,17,5.90
2011,02,18,17,18,5.80
2011,02,18,17,19,5.70
2011,02,18,17,20,5.60
2011,02,18,17,21,5.60
2011,02,18,17,22,5.60
2011,02,18,17,23,5.50
2011,02,18,17,24,5.40
2011,02,18,17,25,5.40
2011,02,18,17,26,5.30
2011,02,18,17,27,5.30
2011,02,18,17,28,5.30
2011,02,18,17,29,5.20
2011,02,18,17,30,5.20
2011,02,18,17,31,5.20
2011,02,18,17,32,5.10
2011,02,18,17,33,5.10
2011,02,18,17,34,5.10
2011,02,18,17,35,5.10
2011,02,18,17,36,5.00
2011,02,18,17,37,5.00
2011,02,18,17,38,4.90
2011,02,18,17,39,4.90
2011,02,18,17,40,4.90
2011,02,18,17,41,4.80
2011,02,18,17,42,4.80
2011,02,18,17,43,4.80
2011,02,18,17,44,4.80
2011,02,18,17,45,4.80
2011,02,18,17,46,4.70
2011,02,18,17,47,4.70
2011,02,18,17,48,4.70
2011,02,18,17,49,4.70
2011,02,18,17,50,4.70
2011,02,18,17,51,4.70
2011,02,18,17,52,4.70
2011,02,18,17,53,4.60
2011,02,18,17,54,4.60
2011,02,18,17,55,4.60
2011,02,18,17,56,4.60
2011,02,18,17,57,4.60
2011,02,18,17,58,4.50
2011,02,18,17,59,4.50
2011,02,18,18,00,4.50
2011,02,18,18,01,4.50
2011,02,18,18,02,4.40
2011,02,18,18,03,4.40
2011,02,18,18,04,4.40
2011,02,18,18,05,4.40